星链-30407 (STARLINK-30407 )

导读 | 星芒AI

STARLINK-30407 是 SpaceX Starlink 卫星互联网项目中的第 30407 颗卫星。该卫星属于星链计划的中轨道卫星群,旨在为全球用户提供高速、低延迟的互联网服务。它于近期通过猎鹰 9 号火箭发射入轨,加入星链星座,增强网络覆盖与连接稳定性。该卫星采用先进推进和通信技术,支持全球偏远地区的互联网接入,助力数字基础设施建设。

基本信息
目录编号:
57823
目录名称:
STARLINK-30407
国际标识:
2023-138R
轨道中心:
EARTH
卫星名称:
星链-30407
卫星全名:
星链-30407 (STARLINK-30407 )
卫星状态:
在轨 (已飞行782 天)
发射日期:
2023-09-09 UTC
国别 :
美国 (US)
星等 :
--
轨道信息
数据来源 国际轨道数据
星历时间: 2025-10-29T15:25:04+0800
1天前
查看轨道信息
半长轴: 6861.187km
偏心率: 0.0000793
轨道倾角: 43.002°
近地点辐角 294.426°
升交点赤经 150.752°
平近点角 65.651°
近地点: 482.507km
远地点: 483.597km
周期: 94.267分钟
每日圈数: 15.2758
详细信息
固有亮度:
5
最大亮度:
0.3
卫星平台:
Starlink v2.0 mini
覆盖范围:
全球
运营商:
太空探索技术公司
运营商所在国:
美国
制造商(研发单位):
太空探索技术公司
制造商所在国:
美国
使用方式:
暂无
卫星简介
星链(Starlink)计划是由太空探索技术公司(SpaceX)提出的一个巨型低轨卫星互联网星座项目,计划在2019年至2024年间在太空搭建由约1.2万颗卫星组成的“星链”网络,其中1584颗将部署在地球上空550千米处的近地轨道,并从2020年开始工作。该卫星仍在工作。
2D轨道图
3D轨道图
轨道高度分析图
轨道倾角分析图
轨道综合分析图
查看轨道综合分析图